Terug naar catalogus

CZ-6A DEB

ActiefSSO
NORAD 54453·DEBRIS·🇨🇳 China

Gelanceerd Nov 11, 2022 vanaf Taiyuan Satellite Launch Center

Loading…

Volgende Passages (komende 24 uur)

TLE

VersSource: Space-Track

Epoch: Sep 14, 2026, 06:37 UTC

1 54453U 22151GD  26257.27637082  .00001514  00000-0  80264-3 0  9993
2 54453  98.9115 268.6442 0083463  52.7523 308.1225 14.13387815197173

Volg CZ-6A DEB in realtime met AllMySat

Download on the App Store